Location: Wangen+im+Allg�u
(47.7098°N, 9.8383°E)
Time: 03:54:28
(UTC+01:00)

ISS - Pass Details

Date: 15 November 2017
Orbit: 401 x 407 km, 51.6° (Epoch: 18 November)

Event Time Altitude Azimuth Distance (km) Brightness Sun altitude
Exits shadow 04:55:35 29° 104° (ESE) 769 -1.9 -25.2°
Drops below altitude 10° 04:57:19 10° 109° (ESE) 1,452 -0.1 -24.9°
Sets 04:59:24 0° 111° (ESE) 2,309 1.2 -24.6°
